TimeCST,TemperatureF,Dew PointF,Humidity,Sea Level PressureIn,VisibilityMPH,Wind Direction,Wind SpeedMPH,Gust SpeedMPH,PrecipitationIn,Events,Conditions,WindDirDegrees,DateUTC
12:53 AM,23.0,15.1,72,30.31,10.0,NE,5.8,-,N/A,,Clear,50,2013-01-22 06:53:00
1:53 AM,25.0,16.0,69,30.30,10.0,Calm,Calm,-,N/A,,Clear,0,2013-01-22 07:53:00
2:53 AM,25.0,16.0,69,30.29,10.0,SE,3.5,-,N/A,,Clear,130,2013-01-22 08:53:00
3:53 AM,23.0,15.1,72,30.27,10.0,ESE,4.6,-,N/A,,Clear,120,2013-01-22 09:53:00
5:53 AM,21.0,15.1,78,30.30,10.0,Calm,Calm,-,N/A,,Clear,0,2013-01-22 11:53:00
6:53 AM,19.9,15.1,81,30.30,10.0,SE,4.6,-,N/A,,Clear,140,2013-01-22 12:53:00
7:53 AM,21.9,17.1,82,30.28,10.0,ESE,3.5,-,N/A,,Clear,110,2013-01-22 13:53:00
9:53 AM,30.9,19.0,61,30.27,10.0,SSE,6.9,-,N/A,,Clear,160,2013-01-22 15:53:00
10:53 AM,39.9,19.9,45,30.26,10.0,South,13.8,-,N/A,,Clear,170,2013-01-22 16:53:00
11:53 AM,46.9,19.9,34,30.26,10.0,SSW,8.1,-,N/A,,Clear,200,2013-01-22 17:53:00
12:53 PM,50.0,21.0,32,30.22,10.0,Variable,4.6,-,N/A,,Clear,0,2013-01-22 18:53:00
1:53 PM,54.0,21.9,29,30.18,10.0,South,8.1,-,N/A,,Clear,190,2013-01-22 19:53:00
2:53 PM,57.0,23.0,27,30.15,10.0,South,9.2,-,N/A,,Clear,190,2013-01-22 20:53:00
3:53 PM,57.9,24.1,27,30.15,10.0,South,6.9,-,N/A,,Clear,170,2013-01-22 21:53:00
4:53 PM,57.0,25.0,29,30.16,10.0,SSE,4.6,-,N/A,,Clear,150,2013-01-22 22:53:00
6:53 PM,43.0,24.1,47,30.19,10.0,East,3.5,-,N/A,,Clear,80,2013-01-23 00:53:00
7:53 PM,39.9,25.0,55,30.19,10.0,SE,3.5,-,N/A,,Clear,140,2013-01-23 01:53:00
8:53 PM,39.9,25.0,55,30.19,10.0,ESE,3.5,-,N/A,,Unknown,120,2013-01-23 02:53:00
9:53 PM,35.1,25.0,67,30.22,10.0,East,4.6,-,N/A,,Clear,100,2013-01-23 03:53:00
10:53 PM,35.1,25.0,67,30.22,10.0,ESE,3.5,-,N/A,,Clear,120,2013-01-23 04:53:00
11:53 PM,33.1,25.0,72,30.22,10.0,East,3.5,-,N/A,,Clear,80,2013-01-23 05:53:00